Tracking 29892 objects as of 21-Nov-2024
HD Live streaming from Space Station
objects crossing your sky now

COSMOS 2499 DEB

Track COSMOS 2499 DEB now!
10-day predictions


NORAD ID: 49925
Int'l Code: 2014-028G
Perigee: 1,106.9 km
Apogee: 1,387.7 km
Inclination: 82.5 °
Period: 110.3 minutes
Semi major axis: 7618 km
RCS: Unknown
Launch date: May 23, 2014
Source: Commonwealth of Independent States (former USSR) (CIS)
Launch site: PLESETSK MISSILE AND SPACE COMPLEX (PKMTR)

Note: This is SATELLITE DEBRIS
Your satellite tracking list
Your tracking list is empty




NASA's NSSDC Master Catalog

Two Line Element Set (TLE):
1 49925U 14028G   24322.58661157  .00011042  00000-0  31157-1 0  9992
2 49925  82.5383 269.1955 0184284 190.8050 168.9085 13.05613118144158
Source of the keplerian elements: AFSPC